Location: LDNL
(36.4545°S, 141.6685°E)
Time: 10:52:03
(UTC+10:00)

A-11 Canister half - Visible Passes

Search period start: 08 August 2022 00:00
Search period end: 18 August 2022 00:00
Orbit: 1514 x 1686 km, 47.2° (Epoch: 07 August)

Date Brightness Start Highest point End Pass type
(mag) Time Alt. Az. Time Alt. Az. Time Alt. Az.
08 Aug 10.9 02:27:33 18° SE 02:27:33 18° SE 02:29:34 10° ESE visible
08 Aug 9.5 04:25:46 44° S 04:27:07 47° S 04:36:02 10° E visible
08 Aug 9.0 06:23:57 12° WSW 06:32:54 88° SSE 06:42:12 10° NE visible
09 Aug 11.1 02:05:52 13° ESE 02:05:52 13° ESE 02:06:36 10° ESE visible
09 Aug 9.5 04:04:04 46° S 04:04:06 46° S 04:13:00 10° E visible
09 Aug 9.0 06:02:16 17° SW 06:09:59 84° SSE 06:19:16 10° ENE visible
10 Aug 9.7 03:42:25 43° SSE 03:42:25 43° SSE 03:49:58 10° E visible
10 Aug 9.0 05:40:37 24° SW 05:47:03 81° SSE 05:56:20 10° ENE visible
11 Aug 10.0 03:20:48 37° SE 03:20:48 37° SE 03:26:57 10° ESE visible
11 Aug 9.0 05:19:00 32° SW 05:24:06 77° SSE 05:33:24 10° ENE visible
11 Aug 10.9 20:32:41 10° NNE 20:33:13 11° NNE 20:33:13 11° NNE visible
12 Aug 10.3 02:59:14 30° SE 02:59:14 30° SE 03:03:56 10° ESE visible
12 Aug 9.0 04:57:26 42° SW 05:01:11 74° SSE 05:10:27 10° ENE visible
12 Aug 10.7 20:10:18 10° NNE 20:12:12 14° NNE 20:12:12 14° NNE visible
12 Aug 11.1 22:10:08 10° NW 22:10:27 11° NW 22:10:27 11° NW visible
13 Aug 10.6 02:37:42 23° ESE 02:37:42 23° ESE 02:40:55 10° ESE visible
13 Aug 9.0 04:35:55 54° SSW 04:38:13 71° SSE 04:47:30 10° ENE visible
13 Aug 9.4 06:34:07 10° WSW 06:42:44 42° NW 06:51:13 10° NNE visible
13 Aug 10.5 19:48:00 10° NNE 19:51:14 15° NE 19:51:14 15° NE visible
13 Aug 10.7 21:47:14 10° NW 21:49:30 19° NNW 21:49:30 19° NNW visible
14 Aug 10.9 02:16:14 16° ESE 02:16:14 16° ESE 02:17:54 10° ESE visible
14 Aug 9.0 04:14:27 66° S 04:15:15 68° SSE 04:24:32 10° ENE visible
14 Aug 9.3 06:12:40 16° WSW 06:19:52 45° NW 06:28:29 10° NNE visible
14 Aug 10.5 19:25:49 10° NNE 19:30:18 14° NE 19:30:18 14° NE visible
14 Aug 10.2 21:24:23 10° NNW 21:28:34 28° NNW 21:28:34 28° NNW visible
15 Aug 11.2 01:54:50 10° ESE 01:54:50 10° ESE 01:54:53 10° ESE visible
15 Aug 9.2 03:53:03 64° SE 03:53:03 64° SE 04:01:33 10° ENE visible
15 Aug 9.2 05:51:16 23° WSW 05:57:01 49° NW 06:05:45 10° NNE visible
15 Aug 10.5 19:03:48 10° NE 19:07:45 13° ENE 19:09:24 12° ENE visible
15 Aug 9.8 21:01:32 10° NNW 21:07:39 39° N 21:07:39 39° N visible
16 Aug 9.5 03:31:43 50° ESE 03:31:43 50° ESE 03:38:35 10° ENE visible
16 Aug 9.1 05:29:57 32° W 05:34:09 52° NW 05:42:59 10° NNE visible
16 Aug 10.6 18:42:06 10° NE 18:44:55 11° ENE 18:47:42 10° ENE visible
16 Aug 9.4 20:38:41 10° NNW 20:46:44 48° NNE 20:46:44 48° NNE visible
16 Aug 11.0 22:43:21 10° WNW 22:45:01 16° WNW 22:45:01 16° WNW visible
17 Aug 10.0 03:10:28 36° E 03:10:28 36° E 03:15:35 10° ENE visible
17 Aug 9.0 05:08:42 44° W 05:11:16 55° NW 05:20:12 10° NNE visible
17 Aug 9.2 20:15:53 10° NNW 20:25:28 49° NE 20:25:49 49° NE visible
17 Aug 10.5 22:20:18 10° WNW 22:24:04 26° WNW 22:24:04 26° WNW visible
